User: anonymous   Login
Location: Clatteringshaws Loch
(55.0508°N, 4.2860°W)
Time: 01:27:12
(UTC+01:00)
Language:

Cosmos 2221 Rocket - Orbit

View from above orbital plane
View from above orbital plane
View from above satellite
View from above satellite

Ground track
Ground track

The orbit data is extracted from the following two-line orbital elements,

1 22237U 92080B   16239.91671471 +.00000119 +00000-0 +13092-4 0  9992
2 22237 082.5118 031.4492 0021313 088.1069 025.5725 14.78276269279879
Epoch (UTC): 26 August 2016 22:00:04
Eccentricity: 0.0021313
inclination: 82.5118°
perigee height: 620 km
apogee height: 650 km
right ascension of ascending node: 31.4492°
argument of perigee: 88.1069°
revolutions per day: 14.78276269
mean anomaly at epoch: 25.5725°
orbit number at epoch: 27987

The dashed part of the orbit path shows where the satellite is in the earth's shadow,  

DLR